TimeCST,TemperatureF,Dew PointF,Humidity,Sea Level PressureIn,VisibilityMPH,Wind Direction,Wind SpeedMPH,Gust SpeedMPH,PrecipitationIn,Events,Conditions,WindDirDegrees,DateUTC
12:53 AM,39.9,27.0,60,30.03,10.0,SSW,9.2,-,N/A,,Clear,200,2013-01-08 06:53:00
1:53 AM,37.9,26.1,62,30.04,10.0,SSW,4.6,-,N/A,,Clear,200,2013-01-08 07:53:00
2:53 AM,37.0,27.0,67,30.04,10.0,South,4.6,-,N/A,,Clear,190,2013-01-08 08:53:00
3:53 AM,37.0,28.0,70,30.03,10.0,SW,3.5,-,N/A,,Clear,220,2013-01-08 09:53:00
4:53 AM,37.9,28.9,70,30.02,10.0,SSW,5.8,-,N/A,,Clear,210,2013-01-08 10:53:00
5:53 AM,37.9,28.9,70,30.01,10.0,SSW,8.1,-,N/A,,Clear,200,2013-01-08 11:53:00
6:53 AM,37.0,28.9,73,30.00,10.0,South,12.7,-,N/A,,Clear,190,2013-01-08 12:53:00
7:53 AM,37.9,28.9,70,30.00,10.0,South,15.0,23.0,N/A,,Clear,190,2013-01-08 13:53:00
8:53 AM,41.0,28.9,62,30.00,10.0,SSW,13.8,-,N/A,,Clear,200,2013-01-08 14:53:00
9:53 AM,43.0,28.9,58,30.02,10.0,SSW,13.8,20.7,N/A,,Clear,210,2013-01-08 15:53:00
10:53 AM,46.9,30.0,52,30.01,10.0,SSW,16.1,20.7,N/A,,Clear,200,2013-01-08 16:53:00
11:53 AM,51.1,30.9,46,29.98,10.0,SSW,15.0,21.9,N/A,,Clear,210,2013-01-08 17:53:00
12:53 PM,53.1,32.0,45,29.96,10.0,SSW,11.5,-,N/A,,Clear,200,2013-01-08 18:53:00
1:53 PM,55.9,32.0,40,29.96,10.0,South,13.8,20.7,N/A,,Clear,190,2013-01-08 19:53:00
2:53 PM,57.0,32.0,39,29.96,10.0,South,15.0,20.7,N/A,,Clear,190,2013-01-08 20:53:00
3:53 PM,55.9,32.0,40,29.95,10.0,South,12.7,24.2,N/A,,Clear,180,2013-01-08 21:53:00
4:53 PM,55.0,30.9,40,29.99,10.0,SSW,10.4,19.6,N/A,,Clear,200,2013-01-08 22:53:00
5:53 PM,51.8,30.2,44,30.03,10.0,South,3.5,-,N/A,,Clear,190,2013-01-08 23:53:00
6:53 PM,46.0,30.0,54,30.06,10.0,SSW,4.6,-,N/A,,Clear,210,2013-01-09 00:53:00
7:53 PM,43.0,30.9,62,30.09,10.0,SSW,4.6,-,N/A,,Clear,200,2013-01-09 01:53:00
8:53 PM,41.0,30.9,67,30.11,10.0,West,6.9,-,N/A,,Clear,280,2013-01-09 02:53:00
9:53 PM,39.0,30.0,70,30.15,10.0,West,4.6,-,N/A,,Clear,280,2013-01-09 03:53:00
10:53 PM,35.6,28.4,75,30.16,10.0,WNW,5.8,-,N/A,,Clear,290,2013-01-09 04:53:00
11:53 PM,36.0,28.0,73,30.22,10.0,WSW,4.6,-,N/A,,Clear,240,2013-01-09 05:53:00